Voltar ao catálogo

KUIPER-00270

AtivoComunicaçõesLEO
NORAD 67791·PAYLOAD·🇺🇸 United States

Lançado Feb 12, 2026 de Guiana Space Centre

Loading…

Próximas Passagens (próximas 24 horas)

TLE

AtualizadoSource: CelesTrak SupGP

Época: Sep 14, 2026, 13:04 UTC

1 67791C 26030AD  26257.54486111 -.00003139  00000+0 -41097-3 0  2571
2 67791  51.8980  65.4975 0000618  97.6819 139.8299 14.79924970    18

Acompanhe KUIPER-00270 em tempo real com AllMySat

Download on the App Store